User: anonymous   Login
Location: Unspecified
(0.0000°N, 0.0000°E)
Time: 11:12:17
(UTC+00:00)
Language:

HORYU 2 - Orbit

View from above orbital plane
View from above orbital plane
View from above satellite
View from above satellite

Ground track
Ground track

The orbit data is extracted from the following two-line orbital elements,

1 38340U 12025D   23271.17241986  .00003957  00000-0  53947-3 0  9996
2 38340  98.1696   1.4325 0011227 160.9213 199.2421 14.79219304611724
Epoch (UTC): 28 September 2023 04:08:17
Eccentricity: 0.0011227
inclination: 98.1696°
perigee height: 624 km
apogee height: 639 km
right ascension of ascending node: 1.4325°
argument of perigee: 160.9213°
revolutions per day: 14.79219304
mean anomaly at epoch: 199.2421°
orbit number at epoch: 61172

The dashed part of the orbit path shows where the satellite is in the earth's shadow,  

DLR